Погода в Славгороде

Погода в Славгороде : погода сейчас, прогноз погоды и архив. Всё, что Вы хотите узнать о погоде в Славгороде!

Хотите узнать прогноз погоды в Славгороде? Тогда Вам сюда: Погода в Славгороде

Поиск расширенной информации на нашем сайте:

Другие новости

Новости СМИ2

Главная страница сайта

Новости сайта

03.07.2017

Напоминаем, что на нашем специализированном сайте Метеоцентр.Азия вы можете получить высокодетализированные автоматические прогнозы погоды по пунктам России, СНГ и мира в авиационном формате (включающие направление и скорость ветра, видимость, явления погоды, количество и форму облачности, нижнюю и верхнюю границу облачности).


Погода в Славгороде - сегодня

Время (UTC), дата Ветер
(°,м/с) 
Видим.   Явления Облачность Т
(°С)
Тd
(°С)
f(%) Тe
(°С)
Pmin
(гПа)
dP
(гПа)
Po
(мм)
O2
(г/м3)
Тmin Tmax R s Состояние
почвы
12 16.06.18 тихо ()   20000 м    9/9 600 м 
[Sc]
+19.7 +16 79 +30  1014.8  0.2  746  277           
15 16.06.18 260 (З) 20000 м    9/9 600 м 
[Sc]
+19.3 +16.5 84 +32  1014.9  0.1  746  277           
18 16.06.18 330 (СЗ) 18000 м    9/9 600 м кучево-дожд. 
[Cb calv]
+17.4 +15 86 +27  1015.4  0.3  747  280    +20.8       
00 17.06.18 100 (В) 13000 м  {гроза, ливн. осадки}  4/4 600 м 
[Sc]
+14.8 +13.8 94 +22  1016.5  0.4  747  283           
06 17.06.18 160 (Ю) 20000 м    4/4 600 м 
[Sc]
+18.4 +11.7 65 +24  1016  747  280  +14    19     
09 17.06.18 110 (В) 20000 м    3/0 верхняя 
[Ci sp]
+23.5 +12.8 51 +29  1015.2  -0.4  747  275           
12 17.06.18 130 (ЮВ) 20000 м    9/4 1000 м верхняя 
[Cu hum|Ci sp]
+25.3 +14.7 52 +34  1014.7  -0.4  747  272           
15 17.06.18 070 (В) 20000 м    9/9 1000 м 
[Sc]
+25.5 +15.2 53 +35  1013.8  -0.8  746  272           
18 17.06.18 070 (В) 20000 м    9/9 1000 м 
[Sc]
+23.8 +15.8 61 +34  1014.1  0.1  746  273    +26.6       
21 17.06.18 010 (С) 20000 м    3/3 600 м 
[Sc]
+19.6 +17 85 +33  1015  0.6  746  277           
00 18.06.18 330 (СЗ) 9000 м  дымка  4/0 средняя 
[Ac und]
+17.1 +16.3 95 +30  1015.1  -0.1  746  279           
06 18.06.18 320 (СЗ) 20000 м    9/8 600 м верхняя 
[Sc|Ci sp]
+19.3 +15 76 +30  1015.5  0.6  747  278  +16.2         
09 18.06.18 тихо ()   18000 м    9/4 1000 м средняя, верхняя 
[Cu med, cong|Ac und|Ci sp]
+23.5 +16.1 63 +34  1015.8  0.6  747  274           
12 18.06.18 340 (С) 20000 м    9/5 1000 м верхняя 
[Cu med, cong|Ci fib]
+25.4 +11.6 42 +29  1015.7  747  273           
15 18.06.18 340 (С) 20000 м    3/0 верхняя 
[Ci fib]
+26 +12.8 44 +31  1014.5  -1.1  746  272           
18 18.06.18 320 (СЗ) 20000 м    8/5 600 м верхняя 
[Sc|Ci sp]
+23.1 +13 53 +29  1015  0.3  747  275    +26.2       
21 18.06.18 тихо ()   20000 м    4/0 средняя 
[Ac und]
+19.2 +15.7 80 +29  1015.7  0.4  747  278           
00 19.06.18 240 (ЮЗ) 20000 м    9/0 средняя 
[Ac und]
+17.5 +14.9 85 +27  1015.8  -0.1  747  280           
06 19.06.18 330 (СЗ) 20000 м    6/0 средняя 
[Ac trans]
+23.6 +13.8 54 +30  1015.6  0.3  747  274  +16.2         
09 19.06.18 220 (ЮЗ) 16000 м    8/8 600 м 
[Sc]
+24.7 +15.9 58 +35  1015.4  -0.1  747  273           
12 19.06.18 240 (ЮЗ) 20000 м    6/0 средняя 
[Ac und]
+26.6 +14.4 47 +34  1014.1  -1.1  746  271           
15 19.06.18 230 (ЮЗ) 20000 м    9/9 600 м кучево-дожд. 
[Cb calv]
+26.2 +15.6 52 +36  1012.6  -1.5  745  271           
18 19.06.18 220 (ЮЗ) 20000 м    8/4 600 м верхняя 
[Sc|Ci fib]
+22.4 +16.9 71 +35  1012.4  -0.5  745  274    +27.4       
21 19.06.18 260 (З) 20000 м    8/8 600 м 
[Sc]
+19.7 +16.2 80 +32  1013.5  0.8  745  277           
00 20.06.18 300 (СЗ) 20000 м    6/6 600 м 
[Sc]
+18.2 +11 63 +21  1014.9  1.3  746  280           
Время (UTC), дата Ветер
(°,м/с) 
Видим.   Явления Облачность Т
(°С)
Тd
(°С)
f(%) Тe
(°С)
Pmin
(гПа)
dP
(гПа)
Po
(мм)
O2
(г/м3)
Тmin Tmax R s Состояние
почвы

Для получения пояснительной информации подведите курсор к названию столбца.

ПОГОДА в Славгороде - архив

Всё, что Вы хотите узнать о погоде в Славгороде - удобно и подробно!

Выберите нужную дату (начиная с 1 января 2015* года) и нажмите кнопку "Найти".
Будут отображены архивные сводки погоды по пункту Славгород, начиная с указанной даты.


Отображать данные в формате CSV (для использования в таблицах Excel)


Внимание! Наш архив погоды предназначен исключительно для личного некоммерческого использования в познавательных целях. Если Вам необходимы официальные справки о состоянии погоды (для производственных, юридических, коммерческих и т.п. целей), обращайтесь в органы Росгидромета.

*Примечание: данная дата относится к архиву по метеостанциям СССР (Россия, СНГ, Балтия).
Архив по метеостанциям Зарубежной Европы и Азии (кроме Китая) хранится 10 дней, по другим регионам земного шара (Китай, Африка, Америка, Австралия, Океания) - 1 день.

Славгород - район местоположения метеостанции


Название, широта, долгота, высота метеостанции:
Славгород 53.4°ш. 31°д. 170 м над ур. моря [Беларусь]

Дополнительная информация

В oтличие oт бoльшинства пoгoдных сайтoв мы публикуем пoдрoбную метеoинфoрмацию в детальнoм прoфессиoнальнoм фoрмате.

Характеристики температуры и влажнoсти вoздуха измеряются на высoте 2 м в тени вдали oт зданий и деревьев.
Скoрoсть ветра измеряется на высoте 10 м (на урoвне рoста челoвека скoрoсть ветра ниже в 1.5-2 раза). Если метеoстанция нахoдится в гoрoде или в лесу, тo скoрoсть ветра занижена на 2-4 м/с пo сравнению с oткрытым местoм. Скoрoсть ветра над акватoриями крупных рек и oзёр, а также на вершинах хoлмoв на 2-5 м/с выше, чем в oбычных услoвиях.
Атмoсфернoе давление в разных тoчках местнoсти мoжет значительнo oтличаться oт давления на метеoстанции, в зависимoсти oт услoвий рельефа (при пoдъёме на 10 м давление пoнижается примернo на 1 мм рт.ст.).